Flag Weather past 2 weeks in Edmonton, Alberta, Canada

Now
21 °F

Sunny.


Feels Like: 14 °F
Forecast: 10 / 27 °F
Wind: 6 mph from South

Location: Edmonton Municipal

Current Time: Nov 23, 2014 at 2:10:00 PM

Latest Report: Nov 23, 2014 at 1:00 PM


Visibility: 9 mi

Pressure: 29.81 "Hg

Humidity: 80%

Dew point: 16 °F

Location of EdmontonLocation

Historic Weather in Edmonton — Graph

°F

Edmonton temperature yesterday

Maximum temperature yesterday: 36 °F (at 12:00 AM)
Minimum temperature yesterday: 18 °F (at 11:54 PM)
Average temperature yesterday: 28 °F

Past Weeks' High & Low Weather Summary

 TemperatureHumidityPressure
High43 °F (Nov 21, 1:00 PM)100% (Nov 12, 5:00 AM)30.93 "Hg (Nov 12, 5:00 AM)
Low-6 °F (Nov 14, 2:00 AM)55% (Nov 15, 6:00 PM)29.11 "Hg (Nov 22, 7:47 AM)
Average16 °F79%30.23 "Hg
* Reported Nov 8 1:00 PM — Nov 23 1:00 PM, Edmonton, Weather by CustomWeather, © 2014

Note: Actual official high and low records may vary slightly from our data, if they occured in-between our weather recording intervals... More about our weather records

Advertising

Edmonton weather history for previous 24 hours

 ConditionsComfort  
Time TempWeatherWind HumidityBarometerVisibility
1:00 PM
Nov 23
21 °FSunny.6 mph80%29.81 "Hg9 mi
12:00 PM21 °FSunny.6 mph74%29.83 "Hg9 mi
11:00 AM19 °FSunny.7 mph73%29.87 "Hg9 mi
10:00 AM14 °FSunny.5 mph85%29.89 "Hg9 mi
9:00 AM10 °FSunny.5 mph92%29.90 "Hg9 mi
8:00 AM14 °FClear.5 mph85%29.90 "Hg9 mi
7:00 AM10 °FClear.5 mph85%29.90 "Hg9 mi
6:00 AM16 °FOvercast.No wind86%29.90 "Hg9 mi
5:00 AM16 °FOvercast.No wind86%29.90 "Hg9 mi
4:00 AM16 °FOvercast.5 mph86%29.89 "Hg9 mi
3:00 AM16 °FOvercast.7 mph79%29.88 "Hg9 mi
2:00 AM18 °FOvercast.9 mph73%29.85 "Hg9 mi
1:00 AM18 °FOvercast.14 mph79%29.83 "Hg9 mi
12:00 AM18 °FLight snow. Ice fog.8 mph86%29.80 "Hg2 mi
11:54 PM
Nov 22
18 °FLight snow. Mostly cloudy.8 mph86%29.69 "Hg2 mi
11:00 PM19 °FLight snow. Overcast.12 mph79%29.76 "Hg6 mi
10:56 PM19 °FLight snow. Passing clouds.10 mph79%29.66 "Hg6 mi
10:04 PM21 °FOvercast.6 mph80%29.63 "Hg5 mi
9:00 PM21 °FOvercast.10 mph80%29.70 "Hg9 mi
8:00 PM21 °FLight snow. Overcast.13 mph86%29.66 "Hg2 mi
7:00 PM23 °FLight snow. Mostly cloudy.10 mph86%29.61 "Hg3 mi
6:00 PM23 °FLight snow. Overcast.7 mph86%29.57 "Hg3 mi
5:00 PM23 °FLight snow. Overcast.8 mph86%29.52 "Hg4 mi
4:00 PM23 °FLight snow. Overcast.8 mph86%29.48 "Hg2 mi
3:45 PM23 °FLight snow. Overcast.9 mph86%29.38 "Hg2 mi
3:00 PM23 °FLight snow. Ice fog.9 mph86%29.44 "Hg2 mi
2:02 PM25 °FLight snow. Mostly cloudy.12 mph80%29.30 "Hg2 mi
Weather by CustomWeather, © 2014

See weather overviewHow to use our weather pages